Weather History for Sheldon, IA

Change the Weather History Date:

Saturday, October 18, 2014

  Actual Average Record
Temperature  
Mean Temperature 46 °F -  
Max Temperature 57 °F 55 °F 84 °F (1950)
Min Temperature 35 °F 35 °F 18 °F (1992)
Degree Days  
Heating Degree Days 19    
Moisture  
Dew Point 38 °F    
Average Humidity 75    
Maximum Humidity 100    
Minimum Humidity 51    
Precipitation  
Precipitation 0.00 in - - ()
Sea Level Pressure  
Sea Level Pressure 30.18 in    
Wind  
Wind Speed 6 mph (NW)    
Max Wind Speed 12 mph    
Max Gust Speed 20 mph    
Visibility 10 miles    
Events      
Averages and records for this station are not official NWS values.
T = Trace of Precipitation, MM = Missing Value Source: NWS Daily Summary

Daily Weather History Graph

Daily Weather History Graph

Search for Another Location

Airport:

Trip Planner

Search our weather history database for the weather conditions in past years. The results will help you decide how hot, cold, wet, or windy it might be!

Date:

Astronomy

Oct. 18, 2014 Rise Set
Actual Time 7:40 AM CDT 6:35 PM CDT
Civil Twilight 7:11 AM CDT 7:04 PM CDT
Nautical Twilight 6:38 AM CDT 7:37 PM CDT
Astronomical Twilight 6:05 AM CDT 8:10 PM CDT
Moon 2:32 AM CDT (10/18) 4:03 PM CDT (10/18)
Length of Visible Light 11h 52m
Length of Day
10h 54m
Waning Crescent, 24% of the Moon is Illuminated
Oct 18
Waning Crescent
Oct 23
New
Oct 30
First Quarter
Nov 6
Full
Nov 14
Last Quarter

Hourly Weather History & Observations

Time (CDT) Temp. Windchill Dew Point Humidity Pressure Visibility Wind Dir Wind Speed Gust Speed Precip Events Conditions
12:15 AM 44.6 °F 40.2 °F 37.4 °F 76% 30.17 in 10.0 mi North 8.1 mph 19.6 mph N/A   Overcast
12:35 AM 44.6 °F 39.2 °F 37.4 °F 76% 30.16 in 10.0 mi North 10.4 mph - N/A   Overcast
12:55 AM 44.6 °F 38.8 °F 37.4 °F 76% 30.17 in 10.0 mi North 11.5 mph - N/A   Overcast
1:15 AM 42.8 °F 37.5 °F 37.4 °F 81% 30.17 in 10.0 mi North 9.2 mph - N/A   Overcast
1:35 AM 42.8 °F 38.0 °F 37.4 °F 81% 30.17 in 10.0 mi NNW 8.1 mph - N/A   Overcast
1:55 AM 42.8 °F 37.5 °F 37.4 °F 81% 30.17 in 10.0 mi NNW 9.2 mph - N/A   Overcast
2:15 AM 42.8 °F 37.5 °F 37.4 °F 81% 30.17 in 10.0 mi NNW 9.2 mph - N/A   Overcast
2:35 AM 42.8 °F 38.0 °F 37.4 °F 81% 30.17 in 10.0 mi NNW 8.1 mph - N/A   Overcast
2:55 AM 41.0 °F 35.8 °F 37.4 °F 87% 30.17 in 10.0 mi NNW 8.1 mph - N/A   Mostly Cloudy
3:15 AM 41.0 °F 38.0 °F 37.4 °F 87% 30.17 in 10.0 mi NNW 4.6 mph - N/A   Mostly Cloudy
3:35 AM 41.0 °F 36.4 °F 37.4 °F 87% 30.17 in 10.0 mi NNW 6.9 mph - N/A   Overcast
3:55 AM 41.0 °F 38.0 °F 37.4 °F 87% 30.17 in 10.0 mi NNW 4.6 mph - N/A   Overcast
4:15 AM 41.0 °F 37.1 °F 37.4 °F 87% 30.17 in 10.0 mi NW 5.8 mph - N/A   Overcast
4:35 AM 42.8 °F 38.6 °F 37.4 °F 81% 30.17 in 10.0 mi NNW 6.9 mph - N/A   Overcast
4:55 AM 42.8 °F 39.3 °F 39.2 °F 87% 30.18 in 10.0 mi Variable 5.8 mph - N/A   Overcast
5:15 AM 42.8 °F 39.3 °F 39.2 °F 87% 30.19 in 10.0 mi NW 5.8 mph - N/A   Overcast
5:35 AM 44.6 °F 40.7 °F 39.2 °F 81% 30.20 in 10.0 mi NNW 6.9 mph - N/A   Overcast
5:55 AM 44.6 °F 43.1 °F 39.2 °F 81% 30.20 in 10.0 mi WNW 3.5 mph - N/A   Overcast
6:15 AM 42.8 °F 41.1 °F 39.2 °F 87% 30.20 in 10.0 mi NW 3.5 mph - N/A   Overcast
6:35 AM 42.8 °F 40.1 °F 39.2 °F 87% 30.20 in 10.0 mi NNW 4.6 mph - N/A   Overcast
6:55 AM 41.0 °F 38.0 °F 39.2 °F 93% 30.21 in 10.0 mi NNW 4.6 mph - N/A   Mostly Cloudy
7:15 AM 37.4 °F 33.8 °F 35.6 °F 93% 30.22 in 10.0 mi NW 4.6 mph - N/A   Clear
7:35 AM 35.6 °F - 35.6 °F 100% 30.23 in 10.0 mi Calm Calm - N/A   Partly Cloudy
7:55 AM 37.4 °F 34.9 °F 35.6 °F 93% 30.24 in 9.0 mi NW 3.5 mph - N/A   Mostly Cloudy
8:15 AM 39.2 °F - 37.4 °F 93% 30.24 in 10.0 mi Calm Calm - N/A   Overcast
8:35 AM 41.0 °F 38.0 °F 39.2 °F 93% 30.24 in 10.0 mi NNW 4.6 mph - N/A   Overcast
8:55 AM 42.8 °F 40.1 °F 39.2 °F 87% 30.24 in 10.0 mi NNW 4.6 mph - N/A   Overcast
9:15 AM 42.8 °F 38.0 °F 39.2 °F 87% 30.25 in 10.0 mi North 8.1 mph - N/A   Overcast
9:35 AM 44.6 °F 41.4 °F 39.2 °F 81% 30.25 in 10.0 mi North 5.8 mph - N/A   Overcast
9:55 AM 44.6 °F 40.7 °F 39.2 °F 81% 30.25 in 10.0 mi North 6.9 mph - N/A   Overcast
10:15 AM 46.4 °F 42.4 °F 39.2 °F 76% 30.25 in 10.0 mi North 8.1 mph - N/A   Overcast
10:35 AM 46.4 °F 44.3 °F 39.2 °F 76% 30.24 in 10.0 mi Variable 4.6 mph - N/A   Overcast
10:55 AM 46.4 °F 43.5 °F 39.2 °F 76% 30.24 in 10.0 mi North 5.8 mph - N/A   Overcast
11:15 AM 46.4 °F 44.3 °F 39.2 °F 76% 30.24 in 10.0 mi NE 4.6 mph - N/A   Overcast
11:35 AM 48.2 °F - 39.2 °F 71% 30.24 in 10.0 mi Calm Calm - N/A   Overcast
11:55 AM 50.0 °F - 41.0 °F 71% 30.24 in 10.0 mi North - - N/A   Overcast
12:15 PM 51.8 °F - 39.2 °F 62% 30.24 in 10.0 mi Variable 4.6 mph - N/A   Overcast
12:35 PM 50.0 °F - 39.2 °F 66% 30.23 in 10.0 mi Calm Calm - N/A   Scattered Clouds
12:55 PM 50.0 °F - 39.2 °F 66% 30.23 in 10.0 mi SW 3.5 mph - N/A   Clear
1:15 PM 51.8 °F - 39.2 °F 62% 30.23 in 10.0 mi Calm Calm - N/A   Partly Cloudy
1:35 PM 51.8 °F - 39.2 °F 62% 30.21 in 10.0 mi NW 4.6 mph - N/A   Scattered Clouds
1:55 PM 53.6 °F - 39.2 °F 58% 30.21 in 10.0 mi Variable 3.5 mph - N/A   Partly Cloudy
2:15 PM 53.6 °F - 39.2 °F 58% 30.20 in 10.0 mi Calm Calm - N/A   Clear
2:35 PM 53.6 °F - 39.2 °F 58% 30.19 in 10.0 mi Variable 4.6 mph - N/A   Clear
2:55 PM 55.4 °F - 39.2 °F 54% 30.18 in 10.0 mi Calm Calm - N/A   Clear
3:15 PM 55.4 °F - 39.2 °F 54% 30.18 in 10.0 mi Calm Calm - N/A   Clear
3:35 PM 55.4 °F - 39.2 °F 54% 30.18 in 10.0 mi SSW 6.9 mph - N/A   Clear
3:55 PM 55.4 °F - 39.2 °F 54% 30.17 in 10.0 mi Calm Calm - N/A   Clear
4:15 PM 57.2 °F - 39.2 °F 51% 30.18 in 10.0 mi Variable 6.9 mph - N/A   Clear
4:35 PM 57.2 °F - 39.2 °F 51% 30.17 in 10.0 mi WSW 4.6 mph - N/A   Clear
4:55 PM 57.2 °F - 39.2 °F 51% 30.17 in 10.0 mi SSW 3.5 mph - N/A   Clear
5:15 PM 55.4 °F - 39.2 °F 54% 30.16 in 10.0 mi Variable 6.9 mph - N/A   Clear
5:35 PM 55.4 °F - 37.4 °F 51% 30.15 in 10.0 mi SSE 6.9 mph - N/A   Clear
5:55 PM 55.4 °F - 37.4 °F 51% 30.14 in 10.0 mi SSE 4.6 mph - N/A   Clear
6:15 PM 53.6 °F - 39.2 °F 58% 30.14 in 10.0 mi SSE 3.5 mph - N/A   Clear
6:35 PM 51.8 °F - 37.4 °F 58% 30.13 in 10.0 mi SSE 4.6 mph - N/A   Clear
6:55 PM 50.0 °F - 37.4 °F 62% 30.13 in 10.0 mi South 4.6 mph - N/A   Clear
7:15 PM 48.2 °F - 37.4 °F 66% 30.13 in 10.0 mi SSE 5.8 mph - N/A   Partly Cloudy
7:35 PM 46.4 °F 42.9 °F 37.4 °F 71% 30.13 in 10.0 mi SSE 6.9 mph - N/A   Scattered Clouds
7:55 PM 46.4 °F 42.9 °F 37.4 °F 71% 30.13 in 10.0 mi SSE 6.9 mph - N/A   Scattered Clouds
8:15 PM 44.6 °F 40.2 °F 37.4 °F 76% 30.13 in 10.0 mi SSE 8.1 mph - N/A   Partly Cloudy
8:35 PM 46.4 °F 42.4 °F 37.4 °F 71% 30.12 in 10.0 mi SSE 8.1 mph - N/A   Partly Cloudy
8:55 PM 44.6 °F 41.4 °F 37.4 °F 76% 30.12 in 10.0 mi South 5.8 mph - N/A   Clear
9:15 PM 44.6 °F 40.7 °F 37.4 °F 76% 30.12 in 10.0 mi South 6.9 mph - N/A   Clear
9:35 PM 42.8 °F 38.6 °F 37.4 °F 81% 30.12 in 10.0 mi South 6.9 mph - N/A   Clear
9:55 PM 42.8 °F 38.0 °F 37.4 °F 81% 30.12 in 10.0 mi South 8.1 mph - N/A   Clear
10:15 PM 42.8 °F 39.3 °F 37.4 °F 81% 30.11 in 10.0 mi South 5.8 mph - N/A   Clear
10:35 PM 41.0 °F 35.8 °F 37.4 °F 87% 30.10 in 10.0 mi SSE 8.1 mph - N/A   Clear
10:55 PM 41.0 °F 36.4 °F 37.4 °F 87% 30.10 in 10.0 mi SSE 6.9 mph - N/A   Clear
11:15 PM 41.0 °F 35.8 °F 37.4 °F 87% 30.09 in 10.0 mi SSE 8.1 mph - N/A   Clear
11:35 PM 42.8 °F 38.6 °F 37.4 °F 81% 30.09 in 10.0 mi South 6.9 mph - N/A   Clear
11:55 PM 41.0 °F 35.8 °F 37.4 °F 87% 30.09 in 10.0 mi South 8.1 mph - N/A   Clear